カタログに戻る

YAOGAN-40 02C

運用中軍事PO
NORAD 63920·PAYLOAD·🇨🇳 China

打ち上げ May 11, 2025 から Taiyuan Satellite Launch Center

Loading…

次のパス (今後24時間)

TLE

最新Source: Space-Track

元期: Sep 14, 2026, 23:13 UTC

1 63920U 25096C   26257.96750304  .00000057  00000-0  20914-4 0  9990
2 63920  85.9982 147.0189 0002048  88.4135 271.7282 14.12461205 88085

AllMySatでYAOGAN-40 02Cをリアルタイム追跡

Download on the App Store